Tracking 20383 objects as of 24-Feb-2020
HD Live streaming from Space Station
objects crossing your sky now
Track the group of recently launched Starlink satellites

IRIDIUM 33 DEB

Track IRIDIUM 33 DEB now!
10-day predictions


NORAD ID: 33869
Int'l Code: 1997-051AN
Perigee: 708.8 km
Apogee: 803.5 km
Inclination: 86.4 °
Period: 99.8 minutes
Semi major axis: 7127 km
RCS: 0.08 m2 (small)
Launch date: September 14, 1997
Source: United States (US)
Launch site: TYURATAM MISSILE AND SPACE COMPLEX (TTMTR)

Note: This is SATELLITE DEBRIS
aabbcc
Your satellite tracking list
Your tracking list is empty




NASA's NSSDC Master Catalog

Two Line Element Set (TLE):
1 33869U 97051AN  20054.58703364 +.00001681 +00000-0 +48444-3 0  9991
2 33869 086.3592 242.2680 0066472 023.7864 336.6384 14.42876896574894
Source of the keplerian elements: AFSPC